CZ-2C R/B (48862 NORAD) Tracking and Keplerian Element Data

This shows tracking and keplerian element data for the satellite.

Feedback or suggestion? Click here.




ElementValue
Catalog48862
NameCZ-2C R/B
Epoch Orbit441
Epoch Day199.18030024
Epoch Year2021
RAAN163.8617
Inclination35.0715
Eccentricity0.0077201
Argument of Perigee160.1094
Mean Anonmoly200.2644
Mean Motion14.81151161
Decay Rate5.5E-07
L11 48862U 21055C 21199.18030024 .00000055 00000-0 10082-4 0 9996
L22 48862 35.0715 163.8617 0077201 160.1094 200.2644 14.81151161 4417



Live tracking and technical data element details for CZ-2C R/B (NORAD 48862). CZ-2C R/B can be tracked NOW for your location showing map with azimuth and elevation plus other details from your city location.







IsCatalogInMostPopularTable: catalog: 48862, numindb: 74
Update: records affected: 1



GetName: 48862 CZ-2C R/B

Hit Count: updated at: Sun, 28 May 2023 06:51:20 GMT